Miscellaneous Local Product
Issued by NWS North Platte, NE

Home | Current Version | Previous Version | Text Only | Print | Product List | Glossary On
Versions: 1 2 3 4 5 6 7 8 9 10 11 12 13 14 15 16 17 18 19 20 21 22 23 24 25 26 27 28 29 30 31 32 33 34 35 36 37 38 39 40 41 42 43 44 45 46 47 48 49 50
000
AXUS43 KLBF 252110
MISLBF


WESTERN AND NORTH CENTRAL NEBRASKA HOURLY WEATHER ROUNDUP
NATIONAL WEATHER SERVICE NORTH PLATTE NE
400 PM CDT SAT OCT 25 2014

***STATIONS NOT REPORTING VARIABLES SUCH AS SKY/WEATHER OR
PRESSURE ARE PROVIDED BY THE NEBRASKA DEPARTMENT OF
ROADS...RAWS...AND APRS NETWORKS...AND ARE NOT UNDER
NATIONAL WEATHER SERVICE QUALITY CONTROL***

...OBSERVATIONS IN AND NEAR THE EASTERN PANHANDLE OF NEBRASKA...

CITY           SKY/WX    TMP DP  RH WIND       PRES   REMARKS
PINE RIDGE     SUNNY     71  39  31 SE8       30.04F
CHADRON        SUNNY     72  40  31 SE8       30.02F
ALLIANCE       SUNNY     75  36  24 S5        30.04F
SIDNEY         SUNNY     78  36  21 SE9       30.06F
WHITECLAY        N/A     71  39  30 SE9         N/A
RUSHVILLE        N/A     75  32  21 S13         N/A
CRESCENT LAKE    N/A     80  34  19 SE5         N/A
LISCO            N/A     79  28  15 E7          N/A
BIG SPRINGS      N/A     75  37  25 E3          N/A
LEWELLEN         N/A     84  32  15 E7          N/A
$$

...OBSERVATIONS IN NORTH CENTRAL NEBRASKA...

CITY           SKY/WX    TMP DP  RH WIND       PRES   REMARKS
VALENTINE      SUNNY     70  31  23 SE10      30.06F
THEDFORD       SUNNY     74  41  30 E10       30.06F
AINSWORTH      SUNNY     69  32  25 E9        30.08F
O`NEILL        SUNNY     70  37  30 E7        30.08F
ORD            SUNNY     71  39  31 SE10      30.05F
BROKEN BOW     SUNNY     74  44  34 E12       30.05F
BROWNLEE         N/A     73  34  23 E10         N/A
SPRINGVIEW       N/A     69  35  29 E8          N/A
BREWSTER         N/A     75  42  29 E10         N/A
ROSE             N/A     75  44  32 E10         N/A
NEWPORT          N/A     70  35  28 E9          N/A
SARGENT          N/A     70  41  34 SE6         N/A
COMSTOCK         N/A     79  44  28 E9          N/A
CHAMBERS         N/A     69  39  33 E5G12       N/A
EWING            N/A     71  41  34 NE3G12      N/A
$$

...OBSERVATIONS IN SOUTHWEST NEBRASKA AND FAR NORTHEAST COLORADO...

CITY           SKY/WX    TMP DP  RH WIND       PRES   REMARKS
WRAY           FAIR      84  29  14 E7        30.04F
HOLYOKE        FAIR      81  32  17 E5        30.05F
IMPERIAL       SUNNY     81  34  18 E8        30.02F
OGALLALA       SUNNY     79  37  22 SE5       30.03F
NORTH PLATTE   SUNNY     76  47  35 SE10      30.02F
MCCOOK         SUNNY     82  45  27 SE9       30.01F
LEXINGTON      SUNNY     78  45  31 SE9       30.04F
PAXTON           N/A     75  43  31 CALM        N/A
SUTHERLAND       N/A     82  42  24 E6          N/A
BRADY            N/A     75  48  38 CALM        N/A
GOTHENBURG       N/A     74  44  33 E9          N/A
CALLAWAY         N/A     74  47  38 SE12        N/A
$$

...SOME WEATHER OBSERVATIONS FROM AROUND THE REGION...

CITY           SKY/WX    TMP DP  RH WIND       PRES   REMARKS
DENVER         SUNNY     79  18  10 E12       30.11F
LARAMIE        SUNNY     72  16  12 SW14G23   30.19F
CHEYENNE       SUNNY     74  19  12 S18       30.15F
SCOTTSBLUFF    SUNNY     76  40  27 SE14      30.03F
RAPID CITY     SUNNY     65  36  34 S15       30.02F
PIERRE         SUNNY     67  28  23 SE8       30.06F
WINNER         FAIR      71  28  20 SE10      30.07F
SIOUX FALLS    SUNNY     68  37  32 NE8       30.09F
OMAHA          SUNNY     76  41  28 NE8       30.06F
GRAND ISLAND   SUNNY     75  43  31 E10       30.06F
KANSAS CITY    SUNNY     79  55  43 CALM      30.03F
WICHITA        SUNNY     90  54  29 S13       30.00F
HAYS           SUNNY     88  52  29 SE12      30.00F
LIBERAL        SUNNY     90  45  20 SW15      30.03F
GOODLAND       SUNNY     85  37  18 S14G22    30.04F
$$



USA.gov is the U.S. government's official web portal to all federal, state and local government web resources and services.